Date,TemperatureHighF,TemperatureAvgF,TemperatureLowF,DewpointHighF,DewpointAvgF,DewpointLowF,HumidityHigh,HumidityAvg,HumidityLow,PressureMaxIn,PressureMinIn,WindSpeedMaxMPH,WindSpeedAvgMPH,GustSpeedMaxMPH,PrecipitationSumIn
2013-1-1,34.0,29.6,23.0,26.0,18.2,6.0,98,66,32,0.00,40.00,18,7,32,0.01
2013-1-2,24.0,22.8,21.0,21.0,15.5,8.0,92,74,49,0.00,40.00,13,5,19,0.00
2013-1-3,26.0,24.6,23.0,17.0,8.5,5.0,78,50,40,0.00,40.00,7,4,14,0.00
2013-1-4,26.0,23.4,20.0,19.0,15.3,8.0,96,72,45,0.00,40.00,6,3,10,0.00
2013-1-5,32.0,27.5,23.0,25.0,15.6,6.0,91,62,41,0.00,40.00,9,4,20,0.00
2013-1-6,31.0,26.3,24.0,25.0,13.9,5.0,95,61,38,0.00,40.00,10,5,17,0.00
2013-1-7,29.0,24.8,23.0,18.0,11.3,4.0,74,57,41,0.00,40.00,6,4,14,0.00
2013-1-8,24.0,19.9,12.0,11.0,8.6,6.0,82,61,45,0.00,40.00,5,2,10,0.00
2013-1-9,12.0,10.7,8.0,7.0,5.8,3.0,84,80,69,0.00,40.00,5,3,11,0.00
2013-1-10,18.0,16.3,12.0,15.0,9.9,-1.0,92,76,45,0.00,40.00,7,3,9,0.00
2013-1-11,22.0,19.8,17.0,17.0,9.4,3.0,86,65,43,0.00,40.00,5,3,8,0.00
2013-1-12,28.0,24.6,22.0,28.0,20.9,13.0,98,86,63,0.00,40.00,6,3,10,0.00
2013-1-13,34.0,32.1,28.0,34.0,32.1,28.0,100,99,98,0.00,40.00,12,4,16,0.00
2013-1-14,33.0,31.0,28.0,33.0,30.5,26.0,100,98,88,0.00,40.00,9,4,18,0.00
2013-1-15,29.0,25.5,21.0,26.0,21.8,19.0,95,86,76,0.00,40.00,7,2,12,0.00
2013-1-16,22.0,20.7,20.0,20.0,17.5,14.0,95,87,75,0.00,40.00,5,2,9,0.00
2013-1-17,21.0,14.6,7.0,14.0,11.1,5.0,95,86,68,0.00,40.00,2,1,5,0.00
2013-1-18,14.0,9.7,7.0,6.0,5.4,4.0,90,82,65,0.00,40.00,2,1,6,0.00
2013-1-19,33.0,18.8,14.0,26.0,6.1,2.0,83,57,46,0.00,40.00,3,2,7,0.00
2013-1-20,35.0,32.7,30.0,32.0,30.3,28.0,100,91,74,0.00,40.00,5,2,8,0.00
2013-1-21,33.0,30.5,28.0,30.0,23.0,20.0,93,74,60,0.00,40.00,4,2,7,0.00
2013-1-22,33.0,28.2,15.0,23.0,20.7,13.0,95,74,63,0.00,40.00,8,4,12,0.00
2013-1-23,30.0,26.7,18.0,28.0,21.2,14.0,98,81,50,0.00,40.00,6,4,11,0.00
2013-1-24,28.0,25.5,21.0,21.0,19.4,18.0,97,78,65,0.00,40.00,7,3,10,0.00
2013-1-25,21.0,16.0,-1.0,20.0,13.5,-4.0,97,90,70,0.00,40.00,8,3,13,0.00
2013-1-26,-1.0,-10.1,-18.0,-4.0,-14.2,-23.0,86,81,77,0.00,40.00,5,2,9,0.00
2013-1-27,-18.0,-21.7,-26.0,-23.0,-27.0,-32.0,77,75,72,0.00,40.00,3,1,6,0.00
2013-1-28,-8.0,-22.9,-29.0,-12.0,-28.5,-35.0,82,74,71,0.00,40.00,6,3,12,0.00
2013-1-29,22.0,5.6,-9.0,21.0,2.9,-13.0,97,89,81,0.00,40.00,6,3,11,0.00
2013-1-30,34.0,27.5,22.0,34.0,27.3,21.0,100,98,97,0.00,40.00,9,3,15,0.01
2013-1-31,32.0,29.3,27.0,32.0,29.3,27.0,100,99,99,0.00,40.00,8,4,13,0.00